Tracking 20942 objects as of 9-Jul-2020
HD Live streaming from Space Station
objects crossing your sky now

MOLNIYA 3-41

Track MOLNIYA 3-41 now!
MOLNIYA 3-41 is classified as:


NORAD ID: 21706
Int'l Code: 1991-065A
Perigee: 2,143.1 km
Apogee: 37,577.2 km
Inclination: 64.2 °
Period: 704.7 minutes
Semi major axis: 26231 km
RCS: 14.2786 m2 (large)
Launch date: September 17, 1991
Source: Commonwealth of Independent States (former USSR) (CIS)
Launch site: PLESETSK MISSILE AND SPACE COMPLEX (PKMTR)
aabbcc
Your satellite tracking list
Your tracking list is empty




NASA's NSSDC Master Catalog

Two Line Element Set (TLE):
1 21706U 91065A   20191.32231061 +.00000985 +00000-0 +00000-0 0  9990
2 21706 064.1690 239.6588 6754210 264.2935 021.5148 02.04351018212449
Source of the keplerian elements: AFSPC